{"data":{"norad_id":69857,"intl_designator":"2026-155K","name":"QIANFAN-228","alt_names":[],"object_type":"PAYLOAD","status":"ACTIVE","operator":null,"country":"PRC","launch_date":"2026-07-05","launch_site_code":"WSC","launch_vehicle":null,"mission":null,"orbit_class":"UNKNOWN","rcs_meters":null,"size_class":null,"mass_kg":null,"dimensions":null,"purposes":[],"wikipedia_slug":null,"has_3d_model":false,"image_url":null,"decayed_at":null,"tle_current":{"epoch":"2026-09-19T19:06:18.877248Z","epoch_age_seconds":82496,"freshness":"FRESH","line1":"1 69857U 26155K   26262.79605182 -.01773867  00000+0 -28271+1 0  9990","line2":"2 69857  89.0085  53.7907 0033910  18.1080 342.1272 13.53189769 10635","mean_motion":13.53189769,"eccentricity":0.003391,"inclination_deg":89.0085,"raan_deg":53.7907,"arg_perigee_deg":18.108,"mean_anomaly_deg":342.1272,"bstar":-2.8271,"rev_number":1063,"period_min":106.41522962919,"perigee_km":1035.3211868207,"apogee_km":1085.7703332994,"semimajor_km":7438.68276006,"source":"CELESTRAK","updated_at":"2026-09-20T09:00:25.158765Z"}}}